{"data":{"norad_id":48471,"epoch":"2026-05-25T03:47:29.248224Z","epoch_age_seconds":51568,"freshness":"FRESH","line1":"1 48471U 21040AV  26145.15797741  .00023611  00000+0  77004-3 0  9993","line2":"2 48471  53.1562 195.3868 0001260  98.5958 261.5186 15.31706809278210","mean_motion":15.31706809,"eccentricity":0.000126,"inclination_deg":53.1562,"raan_deg":195.3868,"arg_perigee_deg":98.5958,"mean_anomaly_deg":261.5186,"bstar":0.00077004,"rev_number":27821,"period_min":94.012770037898,"perigee_km":469.8567420822,"apogee_km":471.5826539701,"semimajor_km":6848.8566980262,"source":"CELESTRAK","updated_at":"2026-05-25T13:38:16.721416Z"}}